Location: Unspecified
(48.2082°N, 0.0000°E)
Time: 00:39:05
(UTC+00:00)

Tiros 1 despin weight - Pass Details

Date: 28 June 2019
Orbit: 594 x 642 km, 48.2° (Epoch: 19 August)

Event Time Altitude Azimuth Distance (km) Brightness Sun altitude
Rises 22:16:11 0° 254° (WSW) 2,865 ? -14.6°
Reaches altitude 10° 22:18:30 10° 253° (WSW) 1,954 ? -14.8°
Maximum altitude 22:22:59 78° 167° (SSE) 619 ? -15.1°
Drops below altitude 10° 22:27:25 10° 82° (E) 1,935 ? -15.4°
Sets 22:29:41 0° 81° (E) 2,834 ? -15.5°
